Wind_Speed
45 48 49 45 51 55 58 61 64 67 67 67 76 74 80 82 85 85 87 89 99 105 112 121 116 107 100 101 103 106 104 98 106 112 96 89 89 85 80 78 69 70 64 59
49 47 50 55 57 60 62 66 68 69 72 69 69 71 76 81 84 89 94 99 107 111 122 127 121 118 112 99 96 96 101 104 98 103 98 88 85 80 79 77 72 72 69 65
52 51 53 57 61 63 66 67 70 71 73 75 81 80 87 89 93 97 100 106 115 117 126 129 127 121 104 98 92 91 92 96 96 87 87 76 81 79 76 74 72 69 74 71
46 49 54 58 64 62 63 69 73 77 81 81 89 86 90 95 94 98 106 114 120 132 135 143 140 126 111 94 84 84 77 81 87 75 72 73 69 70 74 74 75 69 76 76
51 51 56 58 62 68 71 76 78 79 76 80 83 91 95 102 104 109 114 120 127 136 148 150 144 124 102 90 81 80 69 67 70 65 64 68 67 69 69 74 74 70 77 79
58 59 65 69 71 75 75 77 78 80 82 83 90 98 99 105 111 117 124 127 136 141 156 155 143 127 104 96 84 70 67 65 63 56 56 61 65 64 69 73 76 75 77 81
60 63 64 71 73 78 83 88 93 90 89 92 97 103 113 111 119 126 130 135 142 148 158 157 145 116 94 87 79 65 65 60 57 53 49 55 62 60 61 73 78 79 78 81
70 68 73 77 80 81 87 93 100 102 97 92 94 110 114 119 126 131 136 143 147 154 162 161 142 112 96 83 72 58 58 54 53 50 49 53 59 62 58 69 75 79 80 82
78 79 83 82 83 89 92 97 104 106 107 104 104 115 116 124 127 129 139 148 152 158 169 160 141 110 96 83 69 55 47 52 50 49 49 53 56 65 60 66 74 77 79 84
80 82 85 88 90 94 99 103 107 111 115 115 108 115 125 130 133 133 140 149 154 159 164 156 130 106 94 80 68 58 47 50 50 50 47 51 55 60 64 67 76 78 81 84
83 85 84 87 89 89 95 101 104 111 116 122 124 116 130 136 138 143 148 154 160 164 165 152 119 104 88 77 65 59 50 48 46 48 45 48 51 56 63 69 78 78 80 86
87 86 88 86 93 98 102 110 114 119 119 122 127 123 131 139 142 151 156 161 164 164 168 149 112 98 87 72 62 56 49 45 44 43 43 45 49 53 61 70 77 79 80 86
91 94 99 101 100 102 103 113 120 123 125 128 129 133 140 142 146 154 160 163 164 164 164 135 110 96 85 74 60 54 46 43 43 40 40 41 47 51 58 69 78 79 83 92
95 95 103 106 107 109 111 116 123 126 130 129 134 135 136 143 148 156 161 166 166 162 154 124 105 99 86 71 58 53 50 37 42 37 37 39 45 51 55 65 76 77 83 92
105 103 103 108 110 114 116 119 127 131 134 135 135 140 144 150 153 160 167 168 164 162 148 119 98 91 83 70 58 51 50 38 40 34 35 38 43 49 55 63 70 73 81 90
110 108 111 111 114 117 120 125 129 132 137 137 144 144 148 153 159 164 165 167 163 154 130 107 96 89 78 68 58 49 44 35 40 32 36 36 40 45 55 60 66 70 80 81
113 119 119 115 117 120 120 128 127 129 135 141 147 150 153 154 160 168 167 166 157 137 115 101 90 81 73 66 53 46 36 33 37 33 33 34 36 43 51 57 62 68 76 87
122 122 126 122 122 126 128 130 131 133 135 145 146 151 157 160 159 170 171 164 159 138 110 97 83 75 70 62 49 42 29 33 36 32 31 31 33 44 48 55 59 68 75 84
125 126 128 126 128 131 132 135 137 138 141 147 150 155 161 162 164 159 165 165 161 139 106 91 76 66 65 57 44 41 31 31 34 31 30 29 35 41 46 53 56 64 72 78
128 128 125 130 137 135 134 139 139 142 146 151 154 158 160 164 161 164 159 154 134 124 108 87 77 67 60 55 40 36 31 26 32 28 30 30 37 40 47 50 56 59 67 74
130 130 132 137 142 139 145 144 145 149 154 155 158 160 161 163 165 162 155 146 123 110 102 91 81 67 54 51 41 35 27 23 31 26 28 30 36 41 47 50 52 56 68 71
137 136 137 143 146 142 147 152 150 155 158 159 158 161 163 162 161 154 152 126 110 104 100 91 80 70 55 47 39 34 25 25 28 27 26 28 36 43 46 51 52 60 71 81
144 140 142 143 147 151 153 157 160 161 160 162 163 162 161 161 153 149 133 113 102 101 93 86 77 66 53 42 35 33 28 27 27 29 27 29 35 43 47 51 55 60 75 88
144 143 149 151 153 157 160 161 161 163 162 161 162 166 157 154 147 131 121 100 96 100 90 83 71 61 52 43 31 32 29 27 28 28 28 30 32 40 49 55 58 64 81 95
145 153 158 154 154 159 162 165 163 160 163 163 165 160 156 149 133 120 104 93 94 94 85 79 66 57 49 43 32 29 24 26 27 29 29 32 34 42 48 49 55 65 77 95
158 160 158 158 158 159 160 161 160 159 161 163 156 152 146 129 117 107 97 90 90 86 78 74 65 55 46 39 34 29 24 26 28 29 30 32 35 38 44 50 60 68 81 96
Wind_Direction
310 305 307 311 314 316 319 322 325 325 322 320 320 315 319 325 328 327 326 336 334 332 333 333 332 328 319 316 311 303 295 291 287 286 281 277 273 270 265 259 246 246 252 249
309 311 314 316 316 318 319 321 322 321 322 321 321 325 324 320 321 330 336 336 337 336 337 336 333 328 324 320 311 302 296 291 283 281 277 272 267 263 260 256 248 245 242 241
313 316 317 318 318 321 321 319 318 316 315 316 316 320 317 317 327 330 337 335 338 337 337 338 333 328 325 317 309 300 294 286 282 279 277 270 265 259 256 251 248 238 237 234
317 322 324 322 322 321 321 320 318 318 318 319 315 317 320 322 329 336 335 335 332 333 333 336 335 331 326 317 309 298 291 283 281 276 269 265 255 252 250 244 243 233 233 230
310 312 313 314 314 316 313 314 318 320 324 324 326 326 325 328 333 339 335 335 335 338 336 338 336 330 322 315 310 306 298 283 277 276 269 262 252 244 242 240 239 230 227 228
309 311 312 313 314 317 317 315 316 317 319 323 327 330 326 329 338 338 336 336 335 334 336 337 337 332 326 321 318 309 298 286 276 271 264 257 253 244 236 235 231 229 222 225
318 317 317 315 314 317 316 314 315 314 315 322 326 329 328 330 339 335 333 334 335 337 337 336 336 330 324 320 317 308 298 286 275 269 261 252 249 243 232 233 228 225 219 220
312 309 310 310 310 312 313 315 316 319 322 326 329 331 331 333 336 335 332 335 335 336 335 337 335 327 321 322 317 309 297 286 275 267 261 257 249 245 235 230 229 225 218 216
308 308 309 308 313 316 313 314 316 319 326 331 328 332 329 337 330 330 329 333 334 333 334 335 334 326 320 323 317 307 298 287 274 269 260 254 250 246 234 227 226 224 219 215
310 310 313 314 311 311 313 316 315 319 325 330 332 330 323 331 331 328 327 331 332 331 333 333 333 323 322 325 318 309 296 284 276 267 262 252 246 244 237 223 221 221 217 213
311 307 307 312 314 313 313 320 320 323 326 324 328 329 326 330 330 328 329 331 332 331 332 335 331 324 323 325 318 308 299 288 276 268 259 250 242 240 236 222 216 216 216 211
306 312 310 313 313 312 314 316 321 326 325 325 328 328 326 329 329 328 329 331 331 330 332 333 329 323 324 325 318 308 298 289 282 268 256 247 242 235 230 223 211 211 213 209
304 309 312 311 308 314 320 319 322 323 325 325 326 328 324 327 327 326 328 330 329 330 330 332 328 324 326 324 318 307 297 290 282 271 256 242 241 233 228 223 213 207 209 206
307 309 306 310 315 316 317 318 319 321 324 325 324 327 325 324 324 324 326 329 329 329 331 331 329 324 326 322 315 308 298 288 279 272 259 241 237 231 226 223 216 205 207 206
306 307 309 308 314 318 319 317 317 321 322 322 322 324 324 324 323 324 326 329 328 327 330 328 326 324 325 320 315 307 298 292 277 269 259 244 231 227 223 220 220 207 207 207
306 307 312 312 313 313 316 317 316 321 317 317 321 321 321 322 324 323 325 326 328 328 328 326 326 324 323 318 314 308 296 291 276 266 258 247 234 224 220 220 219 207 206 208
309 308 307 310 310 314 316 315 317 314 315 316 320 319 318 320 322 322 324 325 327 328 327 325 324 323 323 318 313 307 293 283 269 262 252 245 233 223 218 220 217 207 206 206
305 305 306 309 309 312 313 312 314 315 312 316 317 317 317 319 321 321 323 324 327 326 324 322 322 325 325 316 312 303 285 275 261 251 248 240 227 220 217 214 213 206 207 205
304 307 307 306 308 310 309 311 312 313 315 314 315 315 318 318 320 320 321 323 325 324 322 321 324 329 325 316 312 301 286 278 260 248 242 237 228 218 214 216 209 207 206 207
302 304 301 303 307 308 306 310 310 311 312 313 312 314 316 318 318 319 321 321 322 321 320 322 325 331 326 316 311 299 287 276 259 245 247 239 227 210 211 212 211 207 205 208
301 300 301 303 306 305 305 307 307 307 310 310 311 313 315 316 318 319 320 322 321 320 320 322 326 330 327 314 308 297 293 277 260 246 240 242 229 213 208 209 209 209 204 205
298 298 299 303 303 303 303 304 305 307 307 310 311 312 314 315 316 319 319 321 319 319 319 320 324 326 326 317 305 303 299 282 265 248 239 233 226 219 207 207 207 206 200 206
297 296 299 300 300 300 302 303 305 307 308 309 312 313 313 314 316 319 320 320 319 318 317 318 323 324 322 317 306 307 298 277 265 254 237 231 222 219 209 204 206 205 199 206
294 293 296 298 296 298 302 304 305 308 308 309 309 311 312 314 315 316 318 317 318 315 316 316 320 323 320 316 308 302 289 272 261 251 239 233 219 214 208 203 201 200 198 205
289 293 296 296 297 299 301 303 305 306 307 307 308 310 312 313 314 315 316 317 316 313 314 314 319 321 319 313 308 299 276 260 254 246 237 231 223 212 206 203 203 198 202 205
291 293 293 295 297 298 300 301 303 304 304 306 307 309 310 312 312 313 314 316 314 310 312 313 317 319 317 311 305 297 272 260 251 239 233 225 220 213 208 201 200 199 199 207
Height
10760 10757 10753 10747 10742 10738 10733 10728 10723 10715 10706 10700 10676 10667 10655 10644 10635 10625 10615 10598 10584 10570 10556 10538 10520 10504 10486 10466 10447 10423 10420 10422 10412 10407 10418 10421 10424 10432 10443 10454 10467 10473 10477 10485
10747 10744 10739 10733 10729 10724 10719 10714 10707 10700 10690 10684 10671 10656 10645 10630 10624 10610 10592 10579 10564 10546 10527 10510 10491 10473 10457 10439 10422 10401 10384 10372 10377 10372 10376 10385 10389 10402 10410 10421 10438 10448 10452 10459
10734 10730 10725 10719 10714 10711 10703 10700 10693 10686 10678 10660 10655 10644 10629 10614 10601 10585 10568 10554 10532 10516 10502 10483 10463 10442 10427 10406 10386 10368 10354 10334 10331 10339 10337 10350 10357 10369 10378 10390 10404 10418 10424 10432
10724 10719 10712 10705 10700 10696 10693 10684 10675 10666 10657 10653 10629 10626 10608 10589 10578 10562 10543 10526 10506 10487 10471 10446 10420 10402 10383 10367 10353 10338 10326 10306 10296 10305 10309 10310 10322 10333 10347 10358 10370 10389 10398 10409
10712 10706 10700 10693 10686 10680 10674 10666 10656 10648 10639 10633 10611 10593 10575 10558 10546 10532 10515 10499 10478 10459 10432 10410 10391 10366 10345 10334 10320 10300 10290 10279 10273 10275 10279 10282 10290 10301 10316 10329 10342 10361 10374 10384
10699 10694 10685 10677 10670 10664 10657 10647 10639 10631 10622 10611 10590 10569 10562 10530 10513 10500 10485 10468 10446 10428 10407 10380 10360 10335 10311 10288 10280 10273 10259 10249 10247 10250 10253 10255 10260 10274 10287 10298 10314 10331 10347 10359
10687 10680 10672 10663 10654 10648 10638 10628 10617 10616 10607 10595 10569 10545 10516 10501 10487 10471 10454 10441 10419 10394 10373 10348 10329 10306 10293 10276 10257 10247 10232 10222 10221 10224 10229 10231 10232 10244 10261 10270 10284 10301 10319 10333
10672 10666 10658 10649 10639 10629 10618 10608 10592 10579 10578 10578 10562 10529 10502 10478 10461 10445 10427 10407 10385 10365 10346 10322 10299 10276 10262 10253 10238 10226 10213 10204 10200 10203 10206 10210 10213 10217 10236 10246 10260 10275 10293 10308
10655 10650 10642 10632 10620 10609 10597 10585 10571 10558 10548 10538 10534 10509 10488 10465 10447 10428 10406 10387 10363 10342 10320 10301 10279 10258 10240 10229 10216 10206 10197 10186 10182 10184 10186 10189 10196 10197 10210 10225 10237 10256 10271 10288
10640 10629 10623 10613 10602 10592 10578 10564 10547 10533 10512 10504 10513 10489 10448 10441 10428 10415 10393 10377 10355 10328 10309 10289 10266 10238 10218 10204 10194 10184 10179 10169 10165 10162 10165 10168 10172 10180 10189 10203 10212 10230 10247 10262
10621 10612 10604 10594 10585 10572 10558 10542 10525 10507 10490 10471 10464 10481 10430 10412 10393 10378 10365 10348 10325 10300 10278 10252 10235 10213 10200 10185 10175 10165 10159 10152 10148 10146 10147 10150 10153 10160 10169 10180 10190 10209 10227 10243
10601 10593 10584 10574 10563 10552 10535 10516 10501 10480 10472 10456 10438 10444 10416 10396 10374 10346 10333 10318 10302 10279 10249 10231 10211 10194 10181 10169 10157 10145 10138 10134 10130 10128 10127 10130 10134 10140 10149 10160 10169 10187 10208 10225
10583 10574 10559 10551 10544 10532 10516 10492 10474 10465 10448 10439 10416 10406 10376 10364 10351 10334 10313 10304 10282 10254 10235 10215 10189 10173 10162 10149 10138 10127 10121 10115 10111 10110 10111 10112 10117 10124 10133 10142 10152 10168 10188 10204
10560 10555 10540 10526 10516 10504 10489 10470 10455 10444 10427 10416 10389 10386 10375 10353 10334 10316 10303 10287 10259 10234 10208 10187 10169 10152 10144 10133 10122 10110 10102 10102 10094 10094 10093 10096 10100 10108 10114 10124 10135 10148 10168 10186
10539 10534 10521 10507 10490 10478 10470 10454 10429 10416 10400 10389 10387 10359 10345 10324 10310 10290 10271 10260 10239 10216 10195 10172 10155 10142 10127 10115 10104 10095 10087 10084 10079 10079 10078 10081 10084 10092 10098 10106 10119 10133 10152 10171
10514 10508 10495 10487 10471 10460 10454 10435 10418 10394 10380 10367 10357 10350 10328 10313 10286 10259 10246 10233 10216 10191 10175 10155 10137 10123 10112 10099 10088 10079 10073 10069 10065 10065 10065 10067 10071 10077 10085 10094 10106 10118 10136 10158
10486 10475 10467 10466 10449 10440 10437 10419 10401 10391 10368 10347 10339 10319 10309 10302 10272 10238 10236 10217 10195 10168 10149 10134 10122 10111 10099 10083 10073 10065 10059 10055 10049 10050 10052 10055 10060 10065 10072 10082 10093 10105 10124 10143
10464 10454 10442 10435 10422 10417 10408 10397 10385 10375 10354 10336 10323 10309 10289 10277 10267 10222 10197 10182 10174 10150 10137 10119 10107 10097 10082 10067 10058 10052 10048 10040 10037 10037 10040 10044 10048 10053 10059 10070 10081 10091 10110 10129
10440 10428 10412 10406 10403 10394 10380 10370 10365 10350 10338 10316 10302 10286 10271 10255 10250 10221 10183 10160 10139 10124 10113 10102 10092 10082 10066 10053 10046 10038 10034 10028 10027 10026 10028 10033 10036 10042 10052 10062 10068 10082 10098 10115
10416 10404 10393 10385 10379 10371 10356 10350 10341 10325 10320 10300 10284 10272 10256 10239 10228 10214 10194 10165 10144 10113 10092 10087 10076 10066 10052 10038 10034 10026 10021 10018 10017 10020 10019 10022 10025 10031 10039 10049 10062 10071 10086 10103
10390 10377 10371 10359 10350 10348 10327 10321 10313 10306 10295 10278 10265 10252 10235 10218 10195 10176 10160 10141 10116 10089 10076 10066 10053 10049 10043 10028 10022 10015 10012 10009 10009 10013 10014 10013 10016 10023 10029 10039 10052 10064 10078 10094
10364 10354 10349 10340 10325 10320 10313 10301 10291 10280 10270 10256 10242 10228 10213 10191 10175 10155 10137 10119 10097 10079 10069 10052 10042 10032 10025 10017 10010 10005 10004 10002 10002 10005 10006 10008 10008 10013 10020 10032 10043 10057 10070 10088
10338 10333 10329 10315 10307 10290 10282 10275 10267 10255 10242 10229 10215 10200 10187 10172 10156 10134 10119 10103 10081 10066 10058 10040 10031 10022 10013 10009 10002 9997 9997 9994 9995 9997 9997 9999 10003 10008 10017 10025 10038 10051 10064 10082
10314 10305 10303 10296 10280 10269 10257 10245 10236 10225 10211 10201 10187 10175 10162 10147 10132 10116 10104 10089 10070 10051 10044 10029 10022 10013 10003 9997 9993 9989 9990 9988 9988 9989 9990 9992 9997 10003 10012 10021 10030 10041 10056 10072
10288 10276 10275 10274 10255 10247 10233 10219 10209 10195 10184 10172 10161 10147 10136 10125 10108 10095 10086 10072 10054 10037 10029 10015 10010 10003 9995 9987 9982 9981 9981 9979 9981 9982 9982 9985 9990 9995 10003 10009 10019 10031 10046 10065
10257 10252 10253 10252 10236 10231 10216 10203 10185 10171 10157 10147 10136 10123 10112 10103 10087 10072 10066 10056 10041 10024 10014 10002 9996 9991 9986 9978 9972 9972 9971 9971 9972 9974 9977 9979 9981 9988 9995 10004 10014 10025 10037 10052